CAPE
0 0 0 0 0 0 0 0 0 0 0 0 0 0 0 0 0 0 0 0 0 0 0 0 0 0 1090 2161 2309 2316 2114 2340 2723 2910 2886 3028 2800 2628 2425 2437 2412 2204 2380 1927 1836 1736 2002 2029 1984 1646 1398 1176 1009 1235 1260 1317 1260 1189 1265 1018 1167 1220 1236 1224 1175 1287 1395 1433 1386 1296 1286 1288 1303 1358 1460 1547 1713 1730 1840 1826 1709 1656 1684 1654 1587 1536
0 0 0 0 0 0 0 0 0 0 0 0 0 0 0 0 0 0 0 0 0 0 0 0 0 48 1186 2013 2242 2122 1865 2373 2762 2774 2889 2765 2751 2525 2334 2271 2026 2215 2348 2144 969 806 677 1472 1754 1521 1291 1158 1021 1212 1272 1352 1273 1232 1287 1144 1127 1063 1161 1199 1207 1286 1406 1517 1418 1519 1556 1581 1365 1515 1721 1850 1867 1763 1814 1781 1717 1598 1673 1591 1594 1607
0 0 0 0 0 0 0 0 0 0 0 0 0 0 0 0 0 0 0 0 0 0 0 0 0 0 1626 1861 2023 2022 2220 2431 2728 2685 2840 2732 2635 2390 2323 2137 2010 2250 2317 2223 1513 1080 1038 1515 1751 1565 1169 1090 1006 1196 1259 1272 1294 1296 1400 1378 1372 1210 1187 1273 1300 1444 1639 1479 1466 1817 1528 1698 1596 1641 1773 1840 1844 1879 1772 1847 1759 1769 1795 1856 1790 1684
0 0 0 0 0 0 0 0 0 0 0 0 0 0 0 0 0 0 0 0 0 0 0 0 0 0 157 1272 1372 2053 2154 2579 2704 2449 2468 2816 2663 2410 2259 1955 1911 2173 2084 1735 1242 971 902 1660 1894 1607 1209 1067 989 1164 1318 1310 1309 1375 1561 1641 1612 1519 1528 1580 1597 1622 1512 1746 1817 1784 2045 1796 1914 1900 1501 1337 1260 1466 1565 1759 1796 1810 1726 1711 1781 1622
0 0 0 0 0 0 0 0 0 0 0 0 0 0 0 0 0 0 0 0 0 0 0 0 0 0 0 0 1114 1553 1799 2492 2243 2022 1907 2299 2513 2299 2103 1831 1926 2108 2087 1439 1077 1011 1292 1808 1849 1554 1279 1079 1034 1293 1462 1432 1367 1484 1653 1709 1690 1677 1645 1617 1599 1614 1720 1812 1838 1508 1722 1676 1567 1508 1623 1626 1659 1819 1843 1894 1998 1947 1693 1609 1608 1617
0 0 0 0 0 0 0 0 0 0 0 0 0 0 0 0 0 0 0 0 0 0 0 0 0 0 0 0 0 996 1526 1871 1949 2072 2038 2080 2273 2238 1970 1684 1894 2162 2154 1671 1083 765 672 1375 1453 1302 1137 990 1095 1412 1650 1623 1563 1609 1734 1741 1562 1467 1471 1650 1851 2132 1814 1805 1784 1696 1524 1469 1594 1544 1591 1613 1723 1902 2062 1764 1500 1585 1432 1523 1560 1496
0 0 0 0 0 0 0 0 0 0 0 0 0 0 0 0 0 0 0 0 0 0 0 0 0 0 0 0 0 0 1320 1851 1670 1446 1822 1799 1947 2044 1869 1650 1829 2231 2167 1794 984 777 855 1178 1482 1316 1041 1104 1198 1620 1799 1744 1736 1793 1794 1427 1371 1658 1783 1752 1772 1756 1832 1995 1976 1714 1278 1261 1457 1512 1372 1305 1242 1367 1158 1144 1400 1538 1573 1514 1598 1579
0 0 0 0 0 0 0 0 0 0 0 0 0 0 0 0 0 0 0 0 0 0 0 0 0 0 0 0 0 0 474 1505 1316 1291 1607 1523 1786 1855 1707 1716 1868 1976 1710 1578 992 1222 1327 1628 1713 1457 1057 1184 1433 1718 1696 1775 1824 1816 1633 1790 1660 1711 1676 1675 1727 1846 1917 1940 1942 2026 1764 1332 1369 1429 1240 1139 1104 1037 1092 1236 1157 1283 1254 1354 1516 1463
0 0 0 0 0 0 0 0 0 0 0 0 0 0 0 0 0 0 0 0 0 0 0 0 0 0 0 0 1 0 3 934 1236 1394 1302 1483 1547 1608 1626 1676 1864 1721 1569 1574 1394 1438 1326 1608 1842 1410 1094 1368 1508 1581 1597 1663 1716 1668 1579 1418 1306 1344 1320 1285 1394 1466 1474 1628 1840 1681 1263 1166 1008 1006 873 750 811 1001 1072 1007 948 924 764 770 921 906
0 0 0 0 0 0 0 0 0 0 0 0 0 0 0 0 0 0 0 0 0 0 0 0 0 0 0 0 46 24 0 363 1348 1432 1649 1414 1344 1398 1391 1618 1895 1430 1355 1362 1465 1457 1340 1668 1831 1222 1152 1336 1458 1474 1513 1539 1538 1526 1422 1365 1178 1171 1194 1108 1086 1029 1125 1134 1242 1388 1434 1156 919 693 644 627 688 685 818 592 545 522 481 439 540 510
0 0 0 0 0 0 0 0 0 0 0 0 0 0 0 0 0 0 0 0 0 0 0 0 0 0 0 0 62 34 8 214 1086 1598 1526 1416 1212 1343 1396 1444 1718 1568 1385 1366 1485 1410 1280 1481 1630 1132 1152 1260 1330 1252 1279 1285 1286 1246 1198 1180 1066 983 991 948 886 926 797 911 975 912 930 836 641 608 595 592 509 448 551 491 401 334 301 224 156 126
0 0 0 0 0 0 0 0 0 0 0 0 0 0 0 0 0 0 0 0 0 0 0 0 0 0 0 0 18 186 212 170 859 1575 1522 1301 1238 1341 1511 1434 1671 1707 1448 1553 1448 1226 1189 1287 1375 1201 1187 1354 1146 1081 1077 1113 1150 1096 1070 1026 925 875 866 821 822 776 708 576 511 646 538 525 498 456 443 370 338 242 186 74 37 10 7 0 0 0
0 0 0 0 0 0 0 0 0 0 0 0 0 0 0 0 0 0 0 0 0 0 0 0 0 0 0 0 238 201 288 861 906 1522 1661 1491 1395 1403 1530 1431 1602 1642 1623 1648 1313 1178 1280 1333 1417 1240 1092 1240 986 965 964 974 1000 993 982 912 886 847 796 767 641 526 524 539 503 456 407 288 211 207 161 94 9 1 0 0 0 0 0 0 0 0
0 0 0 0 0 0 0 0 0 0 0 0 0 0 0 0 0 0 0 0 0 0 0 0 0 0 0 0 16 254 389 370 1075 1690 1818 1538 1473 1480 1524 1384 1494 1581 1550 1468 1329 1294 1395 1338 1537 1390 1190 1140 1138 1024 942 920 904 859 808 746 778 717 594 490 452 413 442 436 378 324 88 54 36 2 0 0 0 0 0 0 0 0 0 0 0 0
0 0 0 0 0 0 0 0 0 0 0 0 0 0 0 0 0 0 0 0 0 0 0 0 0 0 0 10 2 113 194 462 1106 2033 2074 1754 1598 1441 1388 1412 1429 1556 1474 1446 1446 1320 1362 1372 1591 1560 1176 1113 1162 1075 1009 932 799 704 823 657 596 611 463 453 422 394 390 374 332 59 0 0 0 0 0 19 0 0 0 0 0 0 0 0 0 0
0 0 0 0 0 0 0 0 0 0 0 0 0 0 0 0 0 0 0 0 0 0 0 0 0 0 62 164 99 144 432 635 1050 1718 1875 1562 1454 1397 1372 1442 1447 1432 1473 1428 1438 1254 1188 1312 1664 1544 1096 1225 985 898 1032 852 656 633 666 601 672 611 596 558 564 584 554 494 453 362 0 0 0 251 427 401 0 0 0 0 0 0 0 0 0 0
0 0 0 0 0 0 0 0 0 0 0 0 0 0 0 0 0 0 0 0 0 0 0 0 0 0 0 71 132 284 436 596 948 1352 1425 1409 1399 1343 1398 1479 1386 1435 1486 1398 1420 1280 1117 1146 1474 1314 1019 848 894 861 988 712 555 617 549 520 584 558 432 364 366 359 335 362 397 405 357 359 428 450 234 0 0 0 0 0 0 0 0 0 0 1
0 0 0 0 0 0 0 0 0 0 0 0 0 0 0 0 0 0 0 0 0 0 0 0 0 0 0 5 134 316 398 537 930 1231 1333 1338 1386 1376 1386 1380 1411 1351 1324 1399 1488 1264 1083 1014 1134 1054 944 721 692 709 334 299 611 685 659 569 475 415 370 410 452 540 571 558 539 536 507 444 369 81 0 0 0 0 0 0 0 0 0 1 1 1
0 0 0 0 0 0 0 0 0 0 0 0 0 0 0 0 0 0 0 0 0 0 0 0 0 0 0 211 43 208 499 591 808 1114 1271 1377 1445 1398 1375 1397 1481 1218 1111 1218 1227 1021 840 648 740 654 876 679 641 667 427 583 630 678 661 565 420 230 425 387 437 543 719 761 726 669 575 398 109 0 0 0 0 0 0 0 0 0 1 2 2 2
0 0 0 0 0 0 0 0 0 0 0 0 0 0 0 0 0 0 0 0 0 0 0 0 0 0 0 197 232 791 598 824 749 788 1034 1388 1413 1324 1330 1460 1421 984 872 862 980 847 522 794 786 750 792 426 571 665 608 622 660 630 565 487 430 472 434 448 502 469 686 812 744 652 451 94 0 0 0 0 0 0 0 0 0 1 1 2 1 1
0 0 0 0 0 0 0 0 0 0 0 0 0 0 0 0 0 0 0 0 0 0 0 0 0 0 0 8 462 822 741 827 820 761 877 1134 1270 1352 1118 1242 1298 830 664 802 604 579 500 222 652 760 670 592 627 670 688 711 690 645 486 368 359 366 404 420 496 474 684 659 600 428 253 0 0 0 0 0 0 0 0 1 1 1 1 1 1 1
0 0 0 0 0 0 0 0 0 0 0 0 0 0 0 0 0 0 0 0 0 0 0 0 0 1 0 0 32 624 759 682 717 680 815 978 1130 1248 1135 1084 1104 756 548 805 947 722 162 584 559 705 723 737 669 765 747 739 623 468 409 404 334 220 248 323 436 417 508 472 376 247 0 0 0 0 0 0 0 0 0 1 1 2 2 1 2 2
0 0 0 0 0 0 0 0 0 0 0 0 0 0 0 0 0 0 0 0 0 0 0 0 0 0 3 20 46 350 603 488 531 670 752 842 1013 1090 1094 920 859 707 750 846 645 497 256 135 131 565 608 558 635 544 536 491 474 440 251 156 109 0 0 164 322 350 340 326 203 0 0 0 0 0 0 0 1 2 1 1 1 1 1 1 1 2
3 0 0 0 0 0 0 0 0 0 0 0 0 0 0 0 0 0 0 0 0 0 0 0 0 0 3 182 114 514 492 362 618 766 824 750 766 782 770 939 816 623 716 642 438 511 187 170 482 119 830 950 802 744 683 601 534 472 172 214 212 136 0 0 0 248 263 233 100 0 0 0 0 0 0 1 2 1 2 2 1 2 1 2 2 0
0 0 0 0 0 0 0 0 0 0 0 0 0 0 0 0 0 0 0 0 0 0 0 0 0 0 241 152 320 386 401 492 684 787 903 892 781 812 746 814 811 693 684 578 524 635 622 495 549 600 715 894 803 738 766 725 667 179 172 172 153 305 258 107 0 136 207 72 0 0 0 0 0 1 2 2 2 2 2 2 1 1 2 2 0 0
0 0 0 0 0 0 0 0 0 0 0 0 0 0 0 0 0 0 0 0 0 0 0 0 0 0 173 246 376 485 518 566 660 779 865 1001 939 864 759 850 810 764 784 621 606 688 570 537 537 662 676 694 729 772 719 626 457 214 185 469 417 340 260 211 5 128 0 0 0 0 0 1 1 1 1 1 1 2 2 1 1 2 2 0 0 0
0 0 0 0 0 0 0 0 0 0 0 0 0 0 0 0 0 0 0 0 0 0 0 0 0 271 120 320 404 458 547 574 640 740 774 894 966 886 718 653 682 788 708 677 483 588 663 512 422 201 139 454 422 458 523 426 147 194 348 465 263 40 0 0 0 0 0 0 0 0 0 0 0 1 1 1 1 1 1 1 2 2 0 0 0 0
0 0 0 0 0 0 0 0 0 0 0 0 0 0 0 0 0 0 0 0 0 0 0 0 91 580 390 346 449 432 577 542 562 666 686 758 842 862 771 757 734 864 752 646 608 272 583 566 454 104 81 76 70 183 266 45 224 141 387 187 23 0 0 0 0 0 0 0 0 0 0 0 0 0 0 1 1 1 2 2 2 0 0 0 1 1
0 0 0 0 0 0 0 0 0 0 0 0 0 0 0 0 0 0 0 0 0 0 0 0 187 542 508 379 481 439 542 514 485 554 660 685 767 778 756 695 649 722 768 742 624 271 386 194 163 176 66 140 103 180 137 204 206 229 322 117 63 0 0 0 0 0 0 0 0 0 0 0 0 0 0 1 1 1 2 2 1 1 1 1 2 2
0 0 15 0 0 102 26 0 0 0 0 0 0 0 0 0 0 0 0 0 0 0 0 26 330 402 374 585 386 352 471 507 472 530 567 578 615 673 721 687 697 743 793 757 566 282 260 230 179 196 222 265 194 175 186 245 207 170 126 106 71 0 0 0 0 0 0 0 0 0 0 0 0 0 0 1 1 0 1 0 0 1 2 2 3 4
0 0 0 9 2 98 31 0 0 7 0 0 0 0 0 0 0 0 0 0 1 0 0 22 214 112 380 534 318 300 434 487 464 532 577 558 569 643 683 716 751 818 797 625 411 400 222 197 231 141 146 142 350 347 178 245 232 190 133 88 88 0 0 0 0 0 0 0 0 0 0 0 0 0 0 1 1 0 0 0 0 1 2 2 2 2
0 0 10 5 10 41 10 8 0 0 0 2 0 0 0 0 0 0 0 0 0 326 98 232 195 250 325 429 199 294 378 465 438 545 587 588 590 630 691 740 788 850 884 766 341 326 287 264 157 124 137 203 326 249 194 189 153 146 168 84 116 0 0 0 0 0 0 0 0 0 0 0 0 1 0 1 1 0 0 0 0 0 1 1 0 0
0 24 10 4 10 40 14 16 4 0 0 0 0 0 0 0 0 0 0 0 54 425 134 1 324 352 395 249 215 300 345 406 416 439 570 596 595 644 693 723 763 761 711 242 235 238 276 251 195 129 130 110 141 160 112 175 276 124 189 147 0 0 0 0 0 0 0 0 0 0 0 0 0 0 0 1 0 0 0 0 0 0 0 0 0 0
26 86 30 5 12 16 24 12 13 11 0 4 6 0 0 24 0 0 5 2 0 39 13 238 162 300 270 239 241 248 304 415 439 405 469 526 521 525 546 553 613 565 524 214 213 265 234 171 173 116 118 150 129 46 37 86 72 66 80 30 0 0 0 0 0 0 0 0 0 0 0 0 0 0 0 0 0 0 0 0 0 0 0 0 0 0
57 113 2 4 15 21 10 3 36 10 6 29 0 1 3 2 2 0 0 0 0 0 0 22 119 283 406 321 180 216 285 322 425 433 434 458 480 508 547 579 627 482 267 279 258 204 166 132 109 134 107 21 4 0 0 0 1 22 28 9 1 0 0 0 0 0 0 0 0 0 0 0 0 0 0 0 0 0 0 0 0 0 0 0 0 1
4 31 3 2 29 12 6 5 7 3 126 2 104 1 1 0 0 4 2 7 0 0 22 299 196 346 375 239 191 234 176 278 430 474 441 479 533 590 616 685 661 593 423 300 191 162 116 84 58 19 2 2 0 7 10 16 28 16 13 4 1 0 0 0 0 0 0 0 0 0 0 0 0 0 0 0 0 0 0 0 0 0 0 0 0 0
50 86 74 66 14 38 7 12 20 87 96 156 96 50 1 73 17 20 0 18 22 0 0 117 182 284 312 160 119 117 223 371 488 443 490 517 525 562 337 320 673 382 250 192 141 136 90 35 58 25 8 3 0 0 4 12 20 16 11 0 0 0 0 0 0 0 0 0 0 0 0 0 0 0 0 0 0 0 0 0 0 0 0 0 0 0
14 45 100 62 18 29 92 48 65 28 49 116 113 56 83 207 71 0 9 253 1 0 5 90 183 197 130 51 58 162 382 475 505 446 469 557 578 528 362 519 404 261 238 153 117 95 35 30 7 13 13 14 16 9 3 5 2 15 4 0 0 0 2 4 1 0 0 0 0 0 2 1 0 0 0 0 0 0 0 0 0 0 0 0 0 0
18 16 3 74 50 0 50 54 13 0 19 48 70 20 128 211 55 2 0 267 140 10 33 139 79 59 28 37 130 273 384 422 472 438 416 481 573 588 502 494 254 177 61 62 41 0 37 60 27 35 12 7 0 0 0 2 12 8 8 0 0 12 13 11 5 2 2 3 2 1 0 0 0 0 0 0 0 0 0 0 0 0 0 0 0 0
94 17 23 50 4 40 28 5 15 0 6 63 22 230 354 441 25 89 0 0 89 55 84 96 31 43 90 122 186 264 349 472 428 456 361 409 440 494 373 225 210 182 107 61 16 28 30 26 38 59 34 9 2 0 0 0 0 0 0 0 0 2 6 5 4 2 0 0 0 0 0 0 0 0 0 0 0 0 0 0 0 0 0 0 0 0
123 26 18 101 81 0 43 13 0 0 0 0 56 356 398 372 160 10 4 23 5 154 159 129 132 28 100 45 156 310 326 584 412 294 330 427 480 402 159 230 148 162 134 167 118 42 22 21 37 43 44 45 24 5 0 0 0 0 0 0 0 0 0 0 0 0 0 0 0 0 0 0 0 0 0 0 0 0 0 0 0 0 0 0 0 0
41 2 1 0 110 133 87 39 32 0 2 0 269 334 425 120 65 222 40 0 38 166 185 145 77 45 47 90 128 244 273 356 374 278 332 418 391 211 257 270 114 179 182 40 35 36 26 31 24 17 18 34 43 26 12 4 0 0 0 0 0 0 0 0 0 0 0 0 0 0 0 0 0 0 0 0 0 0 0 0 0 0 0 0 0 0
99 57 24 42 0 0 1 107 40 0 0 1 317 212 314 58 119 6 0 0 8 195 134 78 71 33 47 35 88 191 210 240 275 270 366 319 243 258 267 121 76 159 65 20 38 42 30 24 6 12 30 24 9 2 0 0 0 0 0 0 0 0 0 0 0 0 0 0 0 0 0 0 0 0 0 0 0 0 0 0 0 0 0 0 0 0
89 144 41 18 2 158 0 4 72 0 13 98 263 438 185 19 214 25 5 26 56 115 93 53 33 54 31 0 112 166 208 240 277 262 294 275 259 264 278 103 68 79 23 35 19 12 3 0 3 14 13 4 0 0 0 0 0 0 0 0 0 0 0 0 0 0 0 0 0 0 0 0 0 0 0 0 0 0 0 0 0 0 0 0 0 0
13 18 0 53 0 1 15 19 8 18 13 85 204 168 144 59 124 213 118 79 59 69 48 36 30 14 30 67 81 131 179 200 278 226 224 243 259 270 218 39 47 22 32 16 0 0 1 0 0 0 0 0 0 0 0 0 0 0 0 0 0 0 0 0 0 0 0 0 0 0 0 0 0 0 0 0 0 0 0 0 0 0 0 0 0 0
26 13 6 3 1 0 0 0 5 3 0 142 168 146 144 104 98 140 154 107 32 30 30 36 12 7 16 75 111 121 157 202 278 198 227 269 199 252 60 28 32 29 4 1 0 0 0 0 0 0 0 0 0 0 0 0 0 0 0 0 0 0 0 0 0 0 0 0 0 0 0 0 0 0 0 0 0 0 0 0 0 0 0 0 0 0
36 13 42 2 16 2 208 0 5 1 0 139 151 71 50 116 88 112 143 122 12 0 92 0 0 26 66 93 105 99 144 173 270 225 237 136 130 103 55 49 22 1 0 0 0 0 0 0 0 0 0 0 0 0 0 0 0 0 0 0 0 0 0 0 0 0 0 0 0 0 0 0 0 0 0 0 0 0 0 0 0 0 0 0 0 0
35 5 51 19 18 1 3 46 0 0 0 0 144 139 130 141 111 18 139 138 38 28 26 139 123 114 80 61 83 98 129 159 289 300 148 180 158 68 28 9 2 0 0 0 0 0 0 0 0 0 0 0 0 0 0 0 0 0 0 0 0 0 0 0 0 0 0 0 0 0 0 0 0 0 0 0 0 0 0 0 0 0 0 0 0 0
70 3 50 31 19 2 1 0 0 0 0 0 123 142 147 152 154 41 32 57 98 39 22 54 52 43 67 62 62 84 11 40 124 230 173 188 139 28 6 0 1 0 0 0 0 0 0 0 0 0 0 0 0 0 0 0 0 0 0 0 0 0 0 0 0 0 0 0 0 0 0 0 0 0 0 0 0 0 0 0 0 0 0 0 0 0
48 52 22 21 17 10 20 12 58 47 89 0 109 130 134 118 138 83 46 50 66 56 136 155 13 29 12 55 68 92 151 178 195 159 131 129 110 22 1 0 2 0 0 0 0 0 0 0 0 0 0 0 0 0 0 0 0 0 0 0 0 0 0 0 0 0 0 0 0 0 0 0 0 0 0 0 0 0 0 0 0 0 0 0 0 0
9 2 17 53 13 51 12 24 5 63 0 0 0 0 0 0 62 129 59 98 88 42 45 12 31 0 39 16 2 84 127 196 87 74 68 122 94 18 0 2 4 1 0 0 0 0 0 0 0 0 0 0 0 0 0 0 0 0 0 0 0 0 0 0 0 0 0 0 0 0 0 0 0 0 0 0 0 0 0 0 0 0 0 0 0 0
Wind_Speed
nan nan nan nan nan nan nan nan nan nan nan nan nan nan nan nan nan nan nan nan nan nan nan nan nan nan 31 26 20 19 22 20 21 23 22 19 17 15 17 22 30 32 32 32 36 37 32 24 20 19 19 19 18 14 13 12 11 10 10 11 11 12 13 14 14 14 14 16 18 18 19 19 19 19 19 18 17 17 18 17 17 17 16 16 16 17
nan nan nan nan nan nan nan nan nan nan nan nan nan nan nan nan nan nan nan nan nan nan nan nan nan nan 29 26 21 23 24 20 18 19 17 16 15 15 17 24 28 30 29 24 27 29 24 20 16 17 20 19 17 16 15 12 11 10 11 12 12 12 12 12 12 13 14 15 16 18 19 19 19 19 19 19 18 18 18 18 18 17 17 17 17 17
nan nan nan nan nan nan nan nan nan nan nan nan nan nan nan nan nan nan nan nan nan nan nan nan nan nan 29 27 24 23 21 18 16 17 18 17 16 16 21 24 28 30 28 22 20 23 18 13 14 15 17 17 17 18 16 15 14 13 13 14 13 12 12 11 12 13 15 16 18 20 20 19 20 17 18 19 20 20 20 20 19 18 18 18 18 17
nan nan nan nan nan nan nan nan nan nan nan nan nan nan nan nan nan nan nan nan nan nan nan nan nan nan 34 33 27 21 17 18 17 22 31 27 19 18 20 24 27 32 32 25 23 29 24 15 14 14 15 16 17 17 18 17 16 16 15 16 15 14 13 13 14 15 17 19 21 21 20 19 18 19 19 20 21 21 21 21 21 20 19 18 17 17
nan nan nan nan nan nan nan nan nan nan nan nan nan nan nan nan nan nan nan nan nan nan nan nan nan nan nan nan 22 21 20 21 39 45 37 32 30 32 31 27 28 31 27 24 29 33 32 22 14 14 14 15 16 17 18 17 17 17 17 17 17 16 16 15 16 17 18 20 21 21 21 20 20 19 20 21 23 23 23 23 23 21 21 20 18 17
nan nan nan nan nan nan nan nan nan nan nan nan nan nan nan nan nan nan nan nan nan nan nan nan nan nan nan nan nan 19 23 27 37 30 22 21 24 29 26 32 31 25 20 24 26 25 25 19 15 15 15 15 16 17 18 18 18 18 18 19 19 19 18 17 17 17 18 19 21 21 22 21 20 20 20 21 23 22 23 24 23 23 22 21 19 18
nan nan nan nan nan nan nan nan nan nan nan nan nan nan nan nan nan nan nan nan nan nan nan nan nan nan nan nan nan nan 20 24 34 23 18 19 20 21 23 28 25 20 18 22 22 19 17 11 12 15 16 17 17 18 19 19 19 20 20 20 20 19 20 19 19 18 19 20 20 21 20 19 19 20 21 22 22 23 23 24 24 23 23 22 21 19
nan nan nan nan nan nan nan nan nan nan nan nan nan nan nan nan nan nan nan nan nan nan nan nan nan nan nan nan nan nan 23 26 32 23 19 18 17 15 19 24 22 18 15 20 25 25 21 18 14 15 18 20 20 20 20 21 21 21 21 22 23 22 22 20 19 20 20 22 22 23 23 22 22 22 24 23 24 23 22 24 24 23 22 22 21 21
nan nan nan nan nan nan nan nan nan nan nan nan nan nan nan nan nan nan nan nan nan nan nan nan nan nan nan nan nan nan nan 23 28 20 17 16 14 12 15 20 20 18 15 23 29 25 21 22 18 19 20 22 23 22 22 22 23 24 25 25 25 24 23 21 22 22 22 23 23 24 24 24 23 24 24 23 22 23 23 25 25 24 24 23 22 21
nan nan nan nan nan nan nan nan nan nan nan nan nan nan nan nan nan nan nan nan nan nan nan nan nan nan nan nan nan nan nan 23 22 18 16 15 14 13 14 16 18 18 19 29 33 30 26 24 22 21 23 25 26 26 26 26 25 25 26 27 26 25 23 22 24 24 25 24 23 23 23 24 23 22 22 22 23 23 23 25 25 25 24 22 21 21
nan nan nan nan nan nan nan nan nan nan nan nan nan nan nan nan nan nan nan nan nan nan nan nan nan nan nan nan nan nan nan 25 24 19 17 19 15 13 13 16 19 17 22 29 33 30 26 27 27 25 25 25 25 25 26 25 25 26 26 27 28 25 24 23 24 24 24 23 23 22 23 24 24 23 23 23 23 23 23 24 24 24 23 23 22 20
nan nan nan nan nan nan nan nan nan nan nan nan nan nan nan nan nan nan nan nan nan nan nan nan nan nan nan nan nan 28 31 24 26 21 17 19 14 12 14 17 18 20 25 31 33 29 28 28 27 26 24 22 23 24 23 23 24 25 25 27 28 26 24 22 22 23 23 23 22 22 23 24 23 23 23 24 24 23 23 nan nan nan nan nan nan nan
nan nan nan nan nan nan nan nan nan nan nan nan nan nan nan nan nan nan nan nan nan nan nan nan nan nan nan nan 36 31 32 37 27 23 21 20 14 12 14 17 21 24 29 31 32 27 23 22 24 24 22 22 23 23 22 23 23 24 25 27 28 25 23 23 22 23 23 23 22 22 23 23 22 23 23 nan nan nan nan nan nan nan nan nan nan nan
nan nan nan nan nan nan nan nan nan nan nan nan nan nan nan nan nan nan nan nan nan nan nan nan nan nan nan nan nan 34 38 35 33 26 24 21 17 16 18 21 24 25 29 32 33 27 22 22 23 22 21 23 25 24 22 22 22 23 24 26 28 25 23 23 23 22 23 23 23 22 nan nan nan nan nan nan nan nan nan nan nan nan nan nan nan nan
nan nan nan nan nan nan nan nan nan nan nan nan nan nan nan nan nan nan nan nan nan nan nan nan nan nan nan nan nan 36 36 37 35 32 29 27 26 23 26 25 24 25 28 31 33 27 23 23 23 22 23 25 26 25 22 21 21 21 23 25 27 27 25 26 25 24 24 22 23 nan nan nan nan nan nan nan nan nan nan nan nan nan nan nan nan nan
nan nan nan nan nan nan nan nan nan nan nan nan nan nan nan nan nan nan nan nan nan nan nan nan nan nan nan 44 nan 37 38 39 36 34 34 35 31 29 28 24 22 25 27 28 30 28 25 26 24 24 26 28 29 28 25 23 23 23 24 26 27 28 29 29 27 24 23 23 24 26 nan nan nan 23 23 23 nan nan nan nan nan nan nan nan nan nan
nan nan nan nan nan nan nan nan nan nan nan nan nan nan nan nan nan nan nan nan nan nan nan nan nan nan nan nan 41 37 37 37 36 33 32 32 33 30 25 24 25 30 33 31 28 26 27 29 29 29 30 31 31 28 25 25 25 25 25 27 29 30 31 30 28 26 25 25 27 28 28 26 26 25 25 nan nan nan nan nan nan nan nan nan nan nan
nan nan nan nan nan nan nan nan nan nan nan nan nan nan nan nan nan nan nan nan nan nan nan nan nan nan nan nan 41 38 36 36 32 31 30 31 29 27 26 25 27 32 36 31 27 31 36 39 36 33 31 28 26 26 25 25 24 25 26 27 29 31 32 29 28 28 26 26 28 28 28 27 26 nan nan nan nan nan nan nan nan nan nan nan nan nan
nan nan nan nan nan nan nan nan nan nan nan nan nan nan nan nan nan nan nan nan nan nan nan nan nan nan nan 43 nan 34 32 31 29 32 31 30 25 24 26 26 24 25 23 26 34 43 44 40 37 33 29 26 24 25 25 24 25 25 27 28 30 31 30 29 28 29 28 28 26 26 26 26 26 nan nan nan nan nan nan nan nan nan nan nan nan nan
nan nan nan nan nan nan nan nan nan nan nan nan nan nan nan nan nan nan nan nan nan nan nan nan nan nan nan 41 34 30 27 28 29 28 26 26 24 24 25 26 26 26 36 49 53 51 46 38 33 30 26 22 22 23 24 24 24 25 25 27 28 28 29 30 31 30 30 29 28 27 27 nan nan nan nan nan nan nan nan nan nan nan nan nan nan nan
nan nan nan nan nan nan nan nan nan nan nan nan nan nan nan nan nan nan nan nan nan nan nan nan nan nan nan nan 33 30 28 26 27 26 29 28 24 24 26 28 31 36 40 49 51 46 43 39 32 30 28 26 25 25 24 24 25 24 24 26 27 29 29 30 30 30 29 29 29 30 30 nan nan nan nan nan nan nan nan nan nan nan nan nan nan nan
nan nan nan nan nan nan nan nan nan nan nan nan nan nan nan nan nan nan nan nan nan nan nan nan nan nan nan nan nan 33 32 30 28 28 31 28 27 26 28 30 32 36 38 42 44 40 38 38 35 32 32 29 27 25 24 23 24 25 26 27 28 30 29 30 30 30 30 30 30 30 nan nan nan nan nan nan nan nan nan nan nan nan nan nan nan nan
nan nan nan nan nan nan nan nan nan nan nan nan nan nan nan nan nan nan nan nan nan nan nan nan nan nan nan nan nan 32 31 30 28 31 30 29 28 30 34 33 29 32 31 34 40 42 39 37 38 34 32 29 27 26 22 20 23 24 25 27 29 nan nan 32 32 32 32 32 31 nan nan nan nan nan nan nan nan nan nan nan nan nan nan nan nan nan
nan nan nan nan nan nan nan nan nan nan nan nan nan nan nan nan nan nan nan nan nan nan nan nan nan nan nan 39 33 32 31 32 30 31 30 30 31 33 37 35 33 35 31 27 31 38 38 35 35 33 30 28 25 24 24 24 25 24 24 24 26 29 nan nan nan 33 33 33 32 nan nan nan nan nan nan nan nan nan nan nan nan nan nan nan nan nan
nan nan nan nan nan nan nan nan nan nan nan nan nan nan nan nan nan nan nan nan nan nan nan nan nan nan 42 37 34 33 33 33 33 31 30 32 30 32 36 36 33 34 30 24 23 31 35 33 32 30 30 30 28 25 24 26 26 26 26 26 27 27 28 30 nan 33 34 nan nan nan nan nan nan nan nan nan nan nan nan nan nan nan nan nan nan nan
nan nan nan nan nan nan nan nan nan nan nan nan nan nan nan nan nan nan nan nan nan nan nan nan nan nan 38 35 33 32 33 35 34 33 31 31 32 32 35 35 32 31 29 26 25 25 27 27 28 27 28 31 32 29 26 26 27 28 28 29 29 29 29 30 nan 32 nan nan nan nan nan nan nan nan nan nan nan nan nan nan nan nan nan nan nan nan
nan nan nan nan nan nan nan nan nan nan nan nan nan nan nan nan nan nan nan nan nan nan nan nan nan 38 34 31 31 30 31 33 34 33 32 31 32 33 34 32 31 32 31 30 27 25 25 27 30 33 32 32 34 34 31 28 28 27 28 29 29 nan nan nan nan nan nan nan nan nan nan nan nan nan nan nan nan nan nan nan nan nan nan nan nan nan
nan nan nan nan nan nan nan nan nan nan nan nan nan nan nan nan nan nan nan nan nan nan nan nan nan 37 30 29 28 30 31 33 33 32 32 31 30 30 31 32 32 33 31 30 30 30 29 31 34 36 nan nan nan 31 29 nan 25 24 26 27 nan nan nan nan nan nan nan nan nan nan nan nan nan nan nan nan nan nan nan nan nan nan nan nan nan nan
nan nan nan nan nan nan nan nan nan nan nan nan nan nan nan nan nan nan nan nan nan nan nan nan 35 33 30 25 26 29 31 31 32 33 32 33 31 29 29 30 31 32 32 33 32 31 33 32 30 31 nan 28 30 31 27 25 24 24 25 26 nan nan nan nan nan nan nan nan nan nan nan nan nan nan nan nan nan nan nan nan nan nan nan nan nan nan
nan nan nan nan nan 36 nan nan nan nan nan nan nan nan nan nan nan nan nan nan nan nan nan nan 32 34 35 27 28 32 34 35 33 33 33 32 31 28 29 29 30 31 33 33 33 33 32 33 33 30 31 30 31 30 27 25 24 25 26 27 nan nan nan nan nan nan nan nan nan nan nan nan nan nan nan nan nan nan nan nan nan nan nan nan nan nan
nan nan nan nan nan nan nan nan nan nan nan nan nan nan nan nan nan nan nan nan nan nan nan nan 38 37 34 33 36 37 37 36 35 33 30 30 29 29 29 29 30 31 32 33 34 36 37 37 35 32 32 31 30 28 27 27 27 28 30 nan nan nan nan nan nan nan nan nan nan nan nan nan nan nan nan nan nan nan nan nan nan nan nan nan nan nan
nan nan nan nan nan nan nan nan nan nan nan nan nan nan nan nan nan nan nan nan nan 43 nan 44 40 35 33 36 38 37 36 36 34 33 32 29 29 28 29 29 30 31 33 35 37 39 38 37 34 31 31 31 30 30 30 31 32 34 36 nan 37 nan nan nan nan nan nan nan nan nan nan nan nan nan nan nan nan nan nan nan nan nan nan nan nan nan
nan nan nan nan nan nan nan nan nan nan nan nan nan nan nan nan nan nan nan nan nan 42 43 nan 36 35 34 38 38 36 34 33 33 32 32 31 30 31 31 31 31 33 35 37 37 35 34 32 31 31 31 31 30 31 34 36 38 39 38 39 nan nan nan nan nan nan nan nan nan nan nan nan nan nan nan nan nan nan nan nan nan nan nan nan nan nan
nan nan nan nan nan nan nan nan nan nan nan nan nan nan nan nan nan nan nan nan nan nan nan 44 43 42 37 35 34 34 32 29 31 30 31 32 31 31 32 33 34 36 37 34 33 34 33 32 32 32 33 35 35 nan nan nan nan nan nan nan nan nan nan nan nan nan nan nan nan nan nan nan nan nan nan nan nan nan nan nan nan nan nan nan nan nan
nan 32 nan nan nan nan nan nan nan nan nan nan nan nan nan nan nan nan nan nan nan nan nan nan 40 37 31 31 33 35 36 35 32 32 29 29 31 31 32 31 32 33 33 34 33 33 33 34 34 35 37 nan nan nan nan nan nan nan nan nan nan nan nan nan nan nan nan nan nan nan nan nan nan nan nan nan nan nan nan nan nan nan nan nan nan nan
nan nan nan nan nan nan nan nan nan nan 38 nan 39 nan nan nan nan nan nan nan nan nan nan 39 35 37 36 36 38 38 37 37 35 31 28 26 26 30 29 26 27 27 29 28 32 32 32 nan nan nan nan nan nan nan nan nan nan nan nan nan nan nan nan nan nan nan nan nan nan nan nan nan nan nan nan nan nan nan nan nan nan nan nan nan nan nan
nan nan nan nan nan nan nan nan nan nan nan 39 nan nan nan nan nan nan nan nan nan nan nan 38 38 39 40 43 43 42 41 41 38 32 26 25 25 23 22 24 24 25 26 27 29 30 nan nan nan nan nan nan nan nan nan nan nan nan nan nan nan nan nan nan nan nan nan nan nan nan nan nan nan nan nan nan nan nan nan nan nan nan nan nan nan nan
nan nan nan nan nan nan nan nan nan nan nan 35 31 nan nan 40 nan nan nan 40 nan nan nan nan 38 41 43 nan nan 41 42 41 34 26 24 25 27 28 26 26 28 29 29 29 29 nan nan nan nan nan nan nan nan nan nan nan nan nan nan nan nan nan nan nan nan nan nan nan nan nan nan nan nan nan nan nan nan nan nan nan nan nan nan nan nan nan
nan nan nan nan nan nan nan nan nan nan nan nan nan nan 35 37 nan nan nan 36 36 nan nan 36 nan nan nan nan 41 40 38 33 25 25 26 28 29 30 33 31 31 32 nan nan nan nan nan nan nan nan nan nan nan nan nan nan nan nan nan nan nan nan nan nan nan nan nan nan nan nan nan nan nan nan nan nan nan nan nan nan nan nan nan nan nan nan
nan nan nan nan nan nan nan nan nan nan nan nan nan 34 35 39 nan nan nan nan nan nan nan nan nan nan nan 36 38 34 31 26 20 21 29 31 32 33 35 35 34 35 35 nan nan nan nan nan nan nan nan nan nan nan nan nan nan nan nan nan nan nan nan nan nan nan nan nan nan nan nan nan nan nan nan nan nan nan nan nan nan nan nan nan nan nan
32 nan nan 34 nan nan nan nan nan nan nan nan nan 30 35 36 37 nan nan nan nan 31 31 33 35 nan nan nan 31 28 24 28 30 35 35 35 35 34 32 34 35 37 38 36 35 nan nan nan nan nan nan nan nan nan nan nan nan nan nan nan nan nan nan nan nan nan nan nan nan nan nan nan nan nan nan nan nan nan nan nan nan nan nan nan nan nan
nan nan nan nan 35 34 nan nan nan nan nan nan 30 31 33 34 nan 36 nan nan nan 29 30 30 nan nan nan nan 34 39 33 33 38 36 36 35 35 36 36 37 40 38 36 nan nan nan nan nan nan nan nan nan nan nan nan nan nan nan nan nan nan nan nan nan nan nan nan nan nan nan nan nan nan nan nan nan nan nan nan nan nan nan nan nan nan nan
nan nan nan nan nan nan nan 38 nan nan nan nan 28 31 32 nan 36 nan nan nan nan 26 27 nan nan nan nan nan nan 38 37 35 36 38 37 38 38 39 39 38 nan 39 nan nan nan nan nan nan nan nan nan nan nan nan nan nan nan nan nan nan nan nan nan nan nan nan nan nan nan nan nan nan nan nan nan nan nan nan nan nan nan nan nan nan nan nan
nan 19 nan nan nan 32 nan nan nan nan nan nan 23 25 23 nan 33 nan nan nan nan 24 nan nan nan nan nan nan 32 35 37 38 40 42 42 41 41 39 35 33 nan nan nan nan nan nan nan nan nan nan nan nan nan nan nan nan nan nan nan nan nan nan nan nan nan nan nan nan nan nan nan nan nan nan nan nan nan nan nan nan nan nan nan nan nan nan
nan nan nan nan nan nan nan nan nan nan nan nan 30 27 25 nan 26 25 27 nan nan nan nan nan nan nan nan nan nan 34 38 40 42 43 43 40 38 36 34 nan nan nan nan nan nan nan nan nan nan nan nan nan nan nan nan nan nan nan nan nan nan nan nan nan nan nan nan nan nan nan nan nan nan nan nan nan nan nan nan nan nan nan nan nan nan nan
nan nan nan nan nan nan nan nan nan nan nan 26 28 26 25 26 nan 22 22 22 nan nan nan nan nan nan nan nan 30 31 35 39 43 41 41 38 34 32 nan nan nan nan nan nan nan nan nan nan nan nan nan nan nan nan nan nan nan nan nan nan nan nan nan nan nan nan nan nan nan nan nan nan nan nan nan nan nan nan nan nan nan nan nan nan nan nan
nan nan nan nan nan nan 27 nan nan nan nan 18 21 nan nan 23 nan 22 21 21 nan nan nan nan nan nan nan nan 30 nan 34 37 39 37 37 35 34 34 nan nan nan nan nan nan nan nan nan nan nan nan nan nan nan nan nan nan nan nan nan nan nan nan nan nan nan nan nan nan nan nan nan nan nan nan nan nan nan nan nan nan nan nan nan nan nan nan
nan nan nan nan nan nan nan nan nan nan nan nan 16 18 21 24 24 nan 23 23 nan nan nan 20 22 22 nan nan nan nan 32 34 37 35 34 33 34 nan nan nan nan nan nan nan nan nan nan nan nan nan nan nan nan nan nan nan nan nan nan nan nan nan nan nan nan nan nan nan nan nan nan nan nan nan nan nan nan nan nan nan nan nan nan nan nan nan
nan nan nan nan nan nan nan nan nan nan nan nan 16 17 19 20 21 nan nan nan nan nan nan nan nan nan nan nan nan nan nan nan 34 35 34 32 33 nan nan nan nan nan nan nan nan nan nan nan nan nan nan nan nan nan nan nan nan nan nan nan nan nan nan nan nan nan nan nan nan nan nan nan nan nan nan nan nan nan nan nan nan nan nan nan nan nan
nan nan nan nan nan nan nan nan nan nan nan nan 16 16 17 18 19 nan nan nan nan nan 22 22 nan nan nan nan nan nan 29 27 29 33 35 32 33 nan nan nan nan nan nan nan nan nan nan nan nan nan nan nan nan nan nan nan nan nan nan nan nan nan nan nan nan nan nan nan nan nan nan nan nan nan nan nan nan nan nan nan nan nan nan nan nan nan
nan nan nan nan nan nan nan nan nan nan nan nan nan nan nan nan nan 19 nan nan nan nan nan nan nan nan nan nan nan nan 23 25 nan nan nan 33 nan nan nan nan nan nan nan nan nan nan nan nan nan nan nan nan nan nan nan nan nan nan nan nan nan nan nan nan nan nan nan nan nan nan nan nan nan nan nan nan nan nan nan nan nan nan nan nan nan nan
Wind_Direction
nan nan nan nan nan nan nan nan nan nan nan nan nan nan nan nan nan nan nan nan nan nan nan nan nan nan 242 244 242 244 240 240 243 252 253 259 262 257 259 258 252 254 258 254 242 233 223 225 229 232 236 241 244 247 255 254 261 268 264 260 256 247 247 246 250 254 259 265 269 271 277 283 290 296 299 300 301 300 299 302 306 310 311 311 308 305
nan nan nan nan nan nan nan nan nan nan nan nan nan nan nan nan nan nan nan nan nan nan nan nan nan nan 243 245 242 241 238 241 248 257 262 269 270 259 258 257 251 258 260 255 250 242 212 196 221 228 230 238 242 244 244 248 257 270 272 263 256 250 250 249 251 254 255 260 264 271 277 281 288 295 300 302 301 300 299 303 306 310 311 309 307 303
nan nan nan nan nan nan nan nan nan nan nan nan nan nan nan nan nan nan nan nan nan nan nan nan nan nan 239 245 242 242 240 236 245 251 258 260 260 251 249 255 251 255 254 241 228 230 230 206 219 228 234 233 237 238 244 246 257 270 274 265 263 257 255 250 248 250 251 256 262 269 273 280 283 285 285 288 290 294 296 299 303 306 307 307 305 304
nan nan nan nan nan nan nan nan nan nan nan nan nan nan nan nan nan nan nan nan nan nan nan nan nan nan 228 228 230 241 241 231 231 226 224 226 239 240 246 252 253 251 246 230 208 216 235 234 221 229 238 236 237 239 239 245 256 263 268 271 269 266 261 253 248 247 253 257 258 258 265 265 269 279 286 289 291 292 296 299 302 303 302 303 302 303
nan nan nan nan nan nan nan nan nan nan nan nan nan nan nan nan nan nan nan nan nan nan nan nan nan nan nan nan 235 223 225 225 225 223 222 219 227 232 236 241 250 262 264 246 230 229 240 244 226 229 236 235 239 240 244 249 254 257 270 275 274 264 260 257 255 255 254 257 259 263 261 265 271 277 283 287 285 285 289 293 296 297 299 301 300 300
nan nan nan nan nan nan nan nan nan nan nan nan nan nan nan nan nan nan nan nan nan nan nan nan nan nan nan nan nan 239 231 228 237 239 228 235 242 242 240 243 251 255 242 246 256 249 233 209 210 219 229 232 236 240 242 241 245 253 260 266 264 258 258 259 260 255 257 262 266 269 270 272 274 277 281 282 281 282 285 290 295 298 299 299 297 296
nan nan nan nan nan nan nan nan nan nan nan nan nan nan nan nan nan nan nan nan nan nan nan nan nan nan nan nan nan nan 239 239 242 244 236 238 247 246 240 245 252 257 234 220 231 237 235 211 200 217 226 231 238 240 240 240 245 251 255 258 260 256 253 252 255 258 256 259 262 265 264 266 270 276 272 273 278 282 286 290 293 294 293 292 292 289
nan nan nan nan nan nan nan nan nan nan nan nan nan nan nan nan nan nan nan nan nan nan nan nan nan nan nan nan nan nan 234 246 242 242 239 239 247 245 238 248 255 252 239 226 223 222 237 251 237 229 232 232 236 241 242 242 245 251 253 254 249 246 248 245 247 249 250 256 257 258 260 264 269 272 276 278 279 282 287 287 287 289 285 282 284 286
nan nan nan nan nan nan nan nan nan nan nan nan nan nan nan nan nan nan nan nan nan nan nan nan nan nan nan nan nan nan nan 243 247 248 244 245 254 251 248 251 258 258 243 225 229 238 250 260 249 237 235 237 241 242 242 243 245 244 241 239 237 238 238 238 243 246 246 250 254 259 266 269 271 274 276 277 277 280 282 282 283 285 286 287 286 285
nan nan nan nan nan nan nan nan nan nan nan nan nan nan nan nan nan nan nan nan nan nan nan nan nan nan nan nan nan nan nan 246 256 258 253 254 258 255 252 255 259 255 237 221 228 239 250 258 251 242 240 239 237 236 238 238 240 236 235 238 240 239 237 238 244 247 250 253 255 259 265 271 270 270 272 273 274 274 278 280 283 287 289 290 289 286
nan nan nan nan nan nan nan nan nan nan nan nan nan nan nan nan nan nan nan nan nan nan nan nan nan nan nan nan nan nan nan 251 257 255 250 250 247 241 243 253 253 249 234 226 232 240 252 257 255 248 240 240 241 235 234 231 231 233 235 238 241 239 239 241 245 250 253 253 255 259 263 268 270 271 272 274 274 275 277 279 281 285 290 291 288 285
nan nan nan nan nan nan nan nan nan nan nan nan nan nan nan nan nan nan nan nan nan nan nan nan nan nan nan nan nan 237 237 251 266 270 270 269 268 255 246 246 249 239 232 233 236 246 256 256 252 244 239 241 241 239 238 235 236 236 239 243 245 239 241 243 248 252 252 253 254 256 260 263 265 268 271 273 275 275 276 nan nan nan nan nan nan nan
nan nan nan nan nan nan nan nan nan nan nan nan nan nan nan nan nan nan nan nan nan nan nan nan nan nan nan nan 227 229 233 230 236 249 264 273 275 267 257 257 249 238 235 232 239 248 254 249 244 239 236 242 238 239 239 240 238 239 241 245 248 245 245 246 249 251 252 253 254 257 261 264 266 268 271 nan nan nan nan nan nan nan nan nan nan nan
nan nan nan nan nan nan nan nan nan nan nan nan nan nan nan nan nan nan nan nan nan nan nan nan nan nan nan nan nan 229 232 232 231 242 258 267 268 259 246 246 245 244 238 233 237 248 246 238 235 234 235 242 239 241 239 242 241 240 243 248 250 250 249 250 249 248 250 251 254 256 nan nan nan nan nan nan nan nan nan nan nan nan nan nan nan nan
nan nan nan nan nan nan nan nan nan nan nan nan nan nan nan nan nan nan nan nan nan nan nan nan nan nan nan nan nan 229 235 239 237 247 255 261 260 260 246 241 241 243 240 236 237 245 243 237 237 235 240 238 239 241 236 238 247 248 248 251 255 254 250 249 249 248 251 253 254 nan nan nan nan nan nan nan nan nan nan nan nan nan nan nan nan nan
nan nan nan nan nan nan nan nan nan nan nan nan nan nan nan nan nan nan nan nan nan nan nan nan nan nan nan 232 nan 232 238 238 241 248 254 252 256 263 258 258 248 240 238 234 240 245 240 237 240 238 235 238 238 238 234 238 245 248 250 252 251 251 249 249 250 250 251 253 255 255 nan nan nan 267 272 274 nan nan nan nan nan nan nan nan nan nan
nan nan nan nan nan nan nan nan nan nan nan nan nan nan nan nan nan nan nan nan nan nan nan nan nan nan nan nan 236 237 240 243 245 250 258 261 260 266 271 266 257 246 237 229 233 239 240 238 237 238 239 237 240 242 239 240 243 250 252 255 254 252 249 248 249 251 252 254 256 255 257 260 264 266 269 nan nan nan nan nan nan nan nan nan nan nan
nan nan nan nan nan nan nan nan nan nan nan nan nan nan nan nan nan nan nan nan nan nan nan nan nan nan nan nan 242 241 242 244 245 248 256 262 266 274 269 270 270 254 223 216 234 234 234 234 232 232 235 243 250 256 257 253 248 247 248 251 256 255 255 251 248 249 251 254 255 256 259 262 265 nan nan nan nan nan nan nan nan nan nan nan nan nan
nan nan nan nan nan nan nan nan nan nan nan nan nan nan nan nan nan nan nan nan nan nan nan nan nan nan nan 239 nan 245 251 250 249 245 256 264 269 276 277 274 280 278 247 230 244 234 227 226 226 230 230 237 245 252 254 256 257 255 253 250 252 255 255 254 249 249 249 250 253 256 260 263 265 nan nan nan nan nan nan nan nan nan nan nan nan nan
nan nan nan nan nan nan nan nan nan nan nan nan nan nan nan nan nan nan nan nan nan nan nan nan nan nan nan 238 247 250 254 256 253 252 255 264 271 267 275 268 276 266 222 221 228 227 221 228 230 233 238 239 242 247 248 249 253 258 259 257 257 257 257 255 252 250 250 250 253 257 260 nan nan nan nan nan nan nan nan nan nan nan nan nan nan nan
nan nan nan nan nan nan nan nan nan nan nan nan nan nan nan nan nan nan nan nan nan nan nan nan nan nan nan nan 239 244 252 257 259 257 248 251 262 266 270 266 259 255 248 239 235 235 231 226 227 235 235 233 234 237 241 247 253 257 257 255 255 257 257 255 253 252 252 253 254 256 258 nan nan nan nan nan nan nan nan nan nan nan nan nan nan nan
nan nan nan nan nan nan nan nan nan nan nan nan nan nan nan nan nan nan nan nan nan nan nan nan nan nan nan nan nan 227 241 247 252 257 252 256 261 264 266 262 259 262 265 259 247 239 240 238 235 232 236 231 233 238 244 250 254 254 254 252 253 253 254 256 256 256 256 256 256 256 nan nan nan nan nan nan nan nan nan nan nan nan nan nan nan nan
nan nan nan nan nan nan nan nan nan nan nan nan nan nan nan nan nan nan nan nan nan nan nan nan nan nan nan nan nan 227 241 249 252 256 259 258 261 261 259 263 258 258 271 272 254 237 234 237 238 234 234 233 236 242 246 248 249 251 254 253 251 nan nan 255 257 257 258 257 257 nan nan nan nan nan nan nan nan nan nan nan nan nan nan nan nan nan
nan nan nan nan nan nan nan nan nan nan nan nan nan nan nan nan nan nan nan nan nan nan nan nan nan nan nan 222 226 237 244 248 251 251 261 254 250 256 264 270 270 269 272 273 255 240 241 245 243 245 244 240 244 251 247 246 250 252 252 254 255 256 nan nan nan 256 257 257 257 nan nan nan nan nan nan nan nan nan nan nan nan nan nan nan nan nan
nan nan nan nan nan nan nan nan nan nan nan nan nan nan nan nan nan nan nan nan nan nan nan nan nan nan 228 226 236 244 249 254 255 251 256 255 251 258 266 269 269 272 276 280 265 243 239 254 260 257 261 255 251 254 253 251 253 255 255 255 256 255 255 255 nan 255 256 nan nan nan nan nan nan nan nan nan nan nan nan nan nan nan nan nan nan nan
nan nan nan nan nan nan nan nan nan nan nan nan nan nan nan nan nan nan nan nan nan nan nan nan nan nan 229 237 245 248 251 252 251 252 247 254 257 257 262 266 269 274 276 280 280 266 262 264 259 260 267 263 252 250 257 258 255 254 255 256 255 256 256 256 nan 257 nan nan nan nan nan nan nan nan nan nan nan nan nan nan nan nan nan nan nan nan
nan nan nan nan nan nan nan nan nan nan nan nan nan nan nan nan nan nan nan nan nan nan nan nan nan 232 232 243 251 253 255 257 256 256 257 255 256 258 263 264 267 273 276 280 275 266 260 265 269 272 266 256 246 247 253 258 256 253 256 258 258 nan nan nan nan nan nan nan nan nan nan nan nan nan nan nan nan nan nan nan nan nan nan nan nan nan
nan nan nan nan nan nan nan nan nan nan nan nan nan nan nan nan nan nan nan nan nan nan nan nan nan 238 234 247 252 260 256 254 254 257 259 257 256 255 257 260 266 271 275 275 274 272 268 271 274 270 nan nan nan 252 251 nan 252 254 257 262 nan nan nan nan nan nan nan nan nan nan nan nan nan nan nan nan nan nan nan nan nan nan nan nan nan nan
nan nan nan nan nan nan nan nan nan nan nan nan nan nan nan nan nan nan nan nan nan nan nan nan 234 233 239 249 257 259 259 257 257 256 257 257 255 255 252 254 264 272 276 278 278 276 281 282 280 269 nan 261 263 263 259 257 258 259 262 266 nan nan nan nan nan nan nan nan nan nan nan nan nan nan nan nan nan nan nan nan nan nan nan nan nan nan
nan nan nan nan nan 213 nan nan nan nan nan nan nan nan nan nan nan nan nan nan nan nan nan nan 239 232 230 246 256 258 256 260 256 250 252 259 265 260 255 261 268 273 277 278 280 280 276 276 278 265 262 270 272 266 262 264 266 268 271 274 nan nan nan nan nan nan nan nan nan nan nan nan nan nan nan nan nan nan nan nan nan nan nan nan nan nan
nan nan nan nan nan nan nan nan nan nan nan nan nan nan nan nan nan nan nan nan nan nan nan nan 233 228 226 246 251 251 255 258 261 265 265 262 263 268 269 269 272 276 278 279 281 280 271 271 280 274 269 273 277 273 268 268 271 273 276 nan nan nan nan nan nan nan nan nan nan nan nan nan nan nan nan nan nan nan nan nan nan nan nan nan nan nan
nan nan nan nan nan nan nan nan nan nan nan nan nan nan nan nan nan nan nan nan nan 225 nan 230 228 227 236 251 251 253 257 264 268 269 270 267 272 271 274 276 278 273 272 276 275 275 274 277 282 282 278 278 278 275 274 276 278 279 282 nan 280 nan nan nan nan nan nan nan nan nan nan nan nan nan nan nan nan nan nan nan nan nan nan nan nan nan
nan nan nan nan nan nan nan nan nan nan nan nan nan nan nan nan nan nan nan nan nan 234 231 nan 224 234 250 253 258 260 262 264 267 270 270 275 275 277 278 280 278 270 270 273 274 272 274 278 282 283 281 279 276 274 275 278 279 281 281 280 nan nan nan nan nan nan nan nan nan nan nan nan nan nan nan nan nan nan nan nan nan nan nan nan nan nan
nan nan nan nan nan nan nan nan nan nan nan nan nan nan nan nan nan nan nan nan nan nan nan 218 228 244 250 255 265 270 271 272 270 267 263 269 272 271 273 273 273 273 273 276 276 276 276 277 278 277 276 276 274 nan nan nan nan nan nan nan nan nan nan nan nan nan nan nan nan nan nan nan nan nan nan nan nan nan nan nan nan nan nan nan nan nan
nan 198 nan nan nan nan nan nan nan nan nan nan nan nan nan nan nan nan nan nan nan nan nan nan 243 254 258 258 260 259 257 260 263 264 262 268 265 263 264 264 270 277 279 278 276 277 281 282 281 278 277 nan nan nan nan nan nan nan nan nan nan nan nan nan nan nan nan nan nan nan nan nan nan nan nan nan nan nan nan nan nan nan nan nan nan nan
nan nan nan nan nan nan nan nan nan nan 211 nan 207 nan nan nan nan nan nan nan nan nan nan 233 246 249 251 250 249 251 255 257 254 257 261 258 266 272 274 273 279 280 282 283 285 286 286 nan nan nan nan nan nan nan nan nan nan nan nan nan nan nan nan nan nan nan nan nan nan nan nan nan nan nan nan nan nan nan nan nan nan nan nan nan nan nan
nan nan nan nan nan nan nan nan nan nan nan 211 nan nan nan nan nan nan nan nan nan nan nan 239 245 249 247 243 245 249 253 253 249 240 244 264 263 259 269 280 282 282 281 284 287 286 nan nan nan nan nan nan nan nan nan nan nan nan nan nan nan nan nan nan nan nan nan nan nan nan nan nan nan nan nan nan nan nan nan nan nan nan nan nan nan nan
nan nan nan nan nan nan nan nan nan nan nan 204 206 nan nan 208 nan nan nan 216 nan nan nan nan 250 251 250 nan nan 252 253 252 253 253 248 258 261 267 255 250 260 270 279 280 276 nan nan nan nan nan nan nan nan nan nan nan nan nan nan nan nan nan nan nan nan nan nan nan nan nan nan nan nan nan nan nan nan nan nan nan nan nan nan nan nan nan
nan nan nan nan nan nan nan nan nan nan nan nan nan nan 217 212 nan nan nan 212 225 nan nan 248 nan nan nan nan 259 257 253 260 264 259 259 265 264 266 271 268 269 273 nan nan nan nan nan nan nan nan nan nan nan nan nan nan nan nan nan nan nan nan nan nan nan nan nan nan nan nan nan nan nan nan nan nan nan nan nan nan nan nan nan nan nan nan
nan nan nan nan nan nan nan nan nan nan nan nan nan 207 210 213 nan nan nan nan nan nan nan nan nan nan nan 260 268 263 266 265 270 272 268 267 266 266 269 270 266 268 269 nan nan nan nan nan nan nan nan nan nan nan nan nan nan nan nan nan nan nan nan nan nan nan nan nan nan nan nan nan nan nan nan nan nan nan nan nan nan nan nan nan nan nan
204 nan nan 204 nan nan nan nan nan nan nan nan nan 214 214 213 210 nan nan nan nan 245 252 256 265 nan nan nan 258 262 240 226 244 259 265 265 266 262 259 269 274 279 281 282 283 nan nan nan nan nan nan nan nan nan nan nan nan nan nan nan nan nan nan nan nan nan nan nan nan nan nan nan nan nan nan nan nan nan nan nan nan nan nan nan nan nan
nan nan nan nan 207 209 nan nan nan nan nan nan 212 217 217 217 nan 216 nan nan nan 245 251 257 nan nan nan nan 242 230 235 249 259 262 266 267 264 261 263 264 267 264 270 nan nan nan nan nan nan nan nan nan nan nan nan nan nan nan nan nan nan nan nan nan nan nan nan nan nan nan nan nan nan nan nan nan nan nan nan nan nan nan nan nan nan nan
nan nan nan nan nan nan nan 210 nan nan nan nan 235 222 210 nan 215 nan nan nan nan 248 259 nan nan nan nan nan nan 245 246 255 263 266 266 265 267 270 272 275 nan 280 nan nan nan nan nan nan nan nan nan nan nan nan nan nan nan nan nan nan nan nan nan nan nan nan nan nan nan nan nan nan nan nan nan nan nan nan nan nan nan nan nan nan nan nan
nan 212 nan nan nan 209 nan nan nan nan nan nan 219 216 222 nan 216 nan nan nan nan 250 nan nan nan nan nan nan 250 249 251 252 256 263 266 270 277 277 275 274 nan nan nan nan nan nan nan nan nan nan nan nan nan nan nan nan nan nan nan nan nan nan nan nan nan nan nan nan nan nan nan nan nan nan nan nan nan nan nan nan nan nan nan nan nan nan
nan nan nan nan nan nan nan nan nan nan nan nan 218 216 213 nan 212 218 220 nan nan nan nan nan nan nan nan nan nan 246 246 253 259 264 268 274 277 278 279 nan nan nan nan nan nan nan nan nan nan nan nan nan nan nan nan nan nan nan nan nan nan nan nan nan nan nan nan nan nan nan nan nan nan nan nan nan nan nan nan nan nan nan nan nan nan nan
nan nan nan nan nan nan nan nan nan nan nan 211 215 217 213 212 nan 214 225 234 nan nan nan nan nan nan nan nan 249 242 249 256 262 264 267 270 272 274 nan nan nan nan nan nan nan nan nan nan nan nan nan nan nan nan nan nan nan nan nan nan nan nan nan nan nan nan nan nan nan nan nan nan nan nan nan nan nan nan nan nan nan nan nan nan nan nan
nan nan nan nan nan nan 204 nan nan nan nan 200 204 nan nan 214 nan 213 227 232 nan nan nan nan nan nan nan nan 249 nan 254 263 264 263 264 268 272 276 nan nan nan nan nan nan nan nan nan nan nan nan nan nan nan nan nan nan nan nan nan nan nan nan nan nan nan nan nan nan nan nan nan nan nan nan nan nan nan nan nan nan nan nan nan nan nan nan
nan nan nan nan nan nan nan nan nan nan nan nan 201 205 214 212 216 nan 219 229 nan nan nan 247 247 247 nan nan nan nan 261 263 266 267 265 267 273 nan nan nan nan nan nan nan nan nan nan nan nan nan nan nan nan nan nan nan nan nan nan nan nan nan nan nan nan nan nan nan nan nan nan nan nan nan nan nan nan nan nan nan nan nan nan nan nan nan
nan nan nan nan nan nan nan nan nan nan nan nan 213 208 203 208 218 nan nan nan nan nan nan nan nan nan nan nan nan nan nan nan 269 270 267 267 270 nan nan nan nan nan nan nan nan nan nan nan nan nan nan nan nan nan nan nan nan nan nan nan nan nan nan nan nan nan nan nan nan nan nan nan nan nan nan nan nan nan nan nan nan nan nan nan nan nan
nan nan nan nan nan nan nan nan nan nan nan nan 224 213 209 206 220 nan nan nan nan nan 253 250 nan nan nan nan nan nan 266 263 266 270 273 269 268 nan nan nan nan nan nan nan nan nan nan nan nan nan nan nan nan nan nan nan nan nan nan nan nan nan nan nan nan nan nan nan nan nan nan nan nan nan nan nan nan nan nan nan nan nan nan nan nan nan
nan nan nan nan nan nan nan nan nan nan nan nan nan nan nan nan nan 237 nan nan nan nan nan nan nan nan nan nan nan nan 269 270 nan nan nan 263 nan nan nan nan nan nan nan nan nan nan nan nan nan nan nan nan nan nan nan nan nan nan nan nan nan nan nan nan nan nan nan nan nan nan nan nan nan nan nan nan nan nan nan nan nan nan nan nan nan nan